{"data":{"norad_id":56840,"intl_designator":"2023-079T","name":"STARLINK-30073","alt_names":[],"object_type":"PAYLOAD","status":"ACTIVE","operator":null,"country":"US","launch_date":"2023-06-04","launch_site_code":"AFETR","launch_vehicle":null,"mission":null,"orbit_class":"UNKNOWN","rcs_meters":null,"size_class":null,"mass_kg":null,"dimensions":null,"purposes":["comms"],"wikipedia_slug":null,"has_3d_model":false,"image_url":null,"decayed_at":null,"tle_current":{"epoch":"2026-05-25T04:00:03.998880Z","epoch_age_seconds":60616,"freshness":"FRESH","line1":"1 56840U 23079T   26145.16671295  .00034932  00000+0  12737-2 0  9991","line2":"2 56840  43.0031 220.4743 0002060 271.8955 309.4640 15.27559261  5849","mean_motion":15.27559261,"eccentricity":0.000206,"inclination_deg":43.0031,"raan_deg":220.4743,"arg_perigee_deg":271.8955,"mean_anomaly_deg":309.464,"bstar":0.0012737,"rev_number":584,"period_min":94.268028531824,"perigee_km":481.69777964052,"apogee_km":484.52461389759,"semimajor_km":6861.2481967691,"source":"CELESTRAK","updated_at":"2026-05-25T13:38:18.165196Z"}}}